Total_Precipitation_Accumulation
2.59 2.84 4.33 4.52 4.04 3.79 3.63 3.59 3.51 3.57 3.59 3.49 3.22 3.09 3.03 2.97 2.95 2.90 2.70 2.62 2.68 2.88 2.99 3.08 3.08 3.02 3.14 3.18 3.26 3.28 3.33 3.62 3.96 3.88 3.60 3.34 3.35 3.54 3.62 3.60 3.37 3.17 3.67
2.24 2.84 4.18 4.15 3.85 3.70 3.53 3.40 3.31 3.33 3.36 3.32 3.26 3.10 3.01 2.91 2.84 2.64 2.54 2.58 2.67 2.73 2.79 2.93 3.02 2.98 3.03 3.12 3.26 3.48 3.57 3.67 3.84 3.80 3.71 3.52 3.55 3.56 3.58 3.62 3.62 3.50 3.51
2.04 2.39 3.11 3.95 3.78 3.51 3.37 3.39 3.45 3.59 3.32 3.08 3.00 2.88 2.78 2.77 2.70 2.61 2.66 2.70 2.81 2.72 2.59 2.79 3.13 3.16 3.14 3.15 3.22 3.37 3.41 3.43 3.47 3.63 4.04 4.17 3.85 3.73 3.40 3.41 3.48 3.31 3.18
1.78 2.05 2.50 3.52 3.38 3.27 3.27 3.28 3.46 3.24 2.85 2.71 2.70 2.63 2.58 2.68 2.84 2.93 2.94 2.94 3.01 2.80 2.57 2.61 3.04 3.12 3.05 2.89 2.72 2.82 2.93 3.07 3.28 3.51 3.87 4.31 4.15 3.91 3.52 3.29 3.25 3.10 2.99
1.76 2.07 2.88 3.51 3.26 3.21 3.17 3.20 3.19 2.93 2.74 2.57 2.49 2.49 2.57 2.81 2.97 3.01 3.09 3.07 3.06 2.86 2.73 2.78 3.12 2.96 2.84 2.73 2.59 2.62 2.67 2.85 3.17 2.98 3.36 3.87 4.29 4.37 3.58 3.24 3.20 3.22 3.25
1.79 2.05 2.76 3.18 2.95 2.91 3.06 3.09 2.85 2.84 2.87 2.59 2.41 2.48 2.71 3.10 3.14 3.21 3.23 2.95 2.95 2.85 2.85 2.91 3.08 2.99 2.83 2.74 2.64 2.47 2.49 2.76 2.66 2.59 3.11 3.62 3.96 4.08 3.48 3.24 3.22 3.32 3.43
1.52 1.73 2.31 2.91 2.71 2.71 2.85 2.77 2.60 2.65 2.76 2.65 2.45 2.63 2.89 3.27 3.37 3.32 3.09 2.79 2.83 2.88 3.00 3.10 3.13 3.14 2.98 2.76 2.71 2.55 2.48 2.54 2.26 2.49 3.00 3.56 3.77 3.67 3.46 3.27 3.15 3.37 3.62
1.50 1.50 1.77 2.38 2.58 2.62 2.62 2.64 2.54 2.49 2.57 2.52 2.44 2.51 2.73 3.23 3.36 3.28 3.08 2.84 2.71 2.82 3.14 3.38 3.27 3.10 2.86 2.74 2.76 2.79 2.74 2.39 1.95 2.07 2.48 3.38 4.09 3.87 3.43 3.21 3.19 3.30 3.53
1.82 1.66 1.55 1.68 2.03 2.42 2.47 2.53 2.52 2.43 2.34 2.23 2.33 2.43 2.83 3.35 3.20 3.05 2.97 2.85 2.79 2.92 3.07 3.22 3.13 2.98 2.87 2.84 2.78 2.78 2.82 2.63 2.23 2.15 2.15 3.09 4.02 4.00 3.50 3.19 3.10 3.24 3.37
1.93 1.75 1.48 1.40 1.61 1.98 2.03 2.23 2.43 2.37 2.26 2.11 2.18 2.36 2.69 3.23 3.06 2.86 2.72 2.94 3.21 3.38 3.46 3.43 3.19 2.99 2.93 2.80 2.72 2.83 2.83 2.52 2.18 2.05 2.38 3.15 4.15 4.24 3.94 3.35 3.00 2.95 3.03
1.77 1.62 1.42 1.34 1.55 1.78 1.83 1.99 2.30 2.23 2.06 1.88 1.87 2.13 2.30 2.60 2.60 2.67 2.79 3.14 3.18 3.21 3.29 3.36 3.27 3.00 2.68 2.58 2.71 2.76 2.47 2.17 2.23 2.18 2.70 3.58 4.17 4.24 4.10 3.75 3.21 2.77 2.68
1.43 1.32 1.25 1.22 1.38 1.58 1.59 1.99 2.26 1.95 1.83 1.61 1.65 1.73 1.92 2.30 2.62 2.38 2.73 3.23 3.16 3.07 2.98 3.10 3.07 2.64 2.11 1.83 2.12 2.13 1.91 2.05 2.24 2.18 2.90 3.82 4.23 4.17 3.88 3.79 3.47 3.13 2.71
1.11 1.06 0.98 0.93 0.96 1.09 1.35 1.73 2.03 2.08 2.03 2.03 1.87 1.76 1.85 1.77 1.92 1.88 1.96 2.22 2.29 2.30 2.20 2.33 2.42 2.10 1.80 1.72 1.75 1.78 1.95 2.03 2.42 2.49 3.09 3.82 4.18 4.25 3.99 3.87 3.50 3.32 3.07
1.00 0.98 0.88 0.86 0.82 0.85 0.98 1.25 1.46 1.57 1.62 1.71 1.64 1.50 1.64 1.62 1.67 1.75 1.76 1.67 1.63 1.70 1.84 1.89 2.04 2.03 1.81 1.73 1.75 1.88 1.96 2.00 2.27 2.75 3.32 3.54 3.95 4.30 4.13 3.86 3.59 3.45 3.26
1.10 1.08 0.98 0.90 0.87 0.89 0.98 1.07 1.12 1.27 1.32 1.34 1.43 1.39 1.45 1.60 1.67 1.67 1.56 1.53 1.41 1.47 1.60 1.74 1.82 1.89 1.94 1.90 1.81 1.95 1.98 2.09 2.19 2.35 2.78 3.08 3.43 4.05 4.37 4.19 3.85 3.61 3.52
1.20 1.16 1.13 1.05 1.01 0.99 0.99 1.02 1.04 1.08 1.12 1.14 1.15 1.14 1.29 1.52 1.56 1.61 1.58 1.61 1.55 1.52 1.64 1.62 1.55 1.72 1.90 1.84 1.73 1.71 1.77 1.89 2.05 2.11 2.34 2.62 2.98 3.40 4.17 4.52 4.36 4.11 4.10
1.16 1.13 1.17 1.18 1.16 1.14 1.12 1.04 0.98 1.08 1.22 1.16 1.09 0.99 1.04 1.25 1.36 1.45 1.51 1.51 1.52 1.59 1.63 1.69 1.53 1.57 1.60 1.62 1.66 1.64 1.59 1.69 1.80 1.91 1.87 1.96 2.18 2.61 3.39 4.18 4.66 4.63 4.62
1.00 1.03 1.12 1.12 1.13 1.16 1.14 1.12 1.15 1.15 1.22 1.15 1.13 1.05 1.01 1.10 1.23 1.40 1.45 1.41 1.39 1.57 1.71 1.81 1.72 1.69 1.65 1.65 1.69 1.74 1.66 1.69 1.61 1.71 1.74 1.69 1.91 1.95 2.45 3.18 3.80 4.07 4.42
0.95 0.98 1.00 1.03 0.99 1.04 1.09 1.09 1.21 1.26 1.27 1.22 1.19 1.11 1.11 1.19 1.31 1.49 1.60 1.62 1.58 1.59 1.65 1.65 1.76 1.77 1.75 1.75 1.67 1.68 1.68 1.66 1.72 1.64 1.72 1.74 1.71 1.83 2.05 2.37 2.88 3.31 3.72
0.94 0.96 0.94 0.94 0.95 0.94 1.05 1.14 1.31 1.44 1.43 1.42 1.31 1.25 1.29 1.44 1.61 1.77 1.78 1.87 1.93 1.83 1.83 1.82 1.88 1.85 1.77 1.81 1.66 1.58 1.59 1.54 1.71 1.83 1.81 1.87 1.83 1.80 2.12 2.33 2.39 2.48 3.00
0.90 0.93 0.93 0.90 0.95 0.97 0.98 1.09 1.31 1.57 1.68 1.81 1.70 1.46 1.39 1.53 1.84 2.15 2.13 2.21 2.29 2.22 2.17 2.17 2.40 2.35 2.06 1.87 1.98 1.85 1.71 1.60 1.81 1.88 1.89 2.06 2.11 2.20 2.38 2.38 2.23 2.16 2.17
0.74 0.80 0.86 0.86 0.92 0.94 0.96 1.12 1.26 1.43 1.43 1.59 1.69 1.62 1.53 1.52 1.71 1.91 2.22 2.39 2.38 2.52 2.61 2.57 2.94 3.08 2.56 2.11 2.28 2.58 2.36 2.21 2.02 1.86 1.91 2.07 2.26 2.44 2.52 2.35 2.17 2.04 1.96
0.63 0.61 0.69 0.75 0.82 0.95 1.09 1.27 1.45 1.67 1.74 1.73 1.61 1.71 1.70 1.59 1.66 1.80 1.98 2.18 2.29 2.44 2.62 2.71 3.02 3.55 3.31 2.62 2.44 2.93 2.78 2.63 2.48 2.13 1.95 1.97 2.12 2.44 2.71 2.60 2.32 2.11 1.96
0.61 0.63 0.69 0.84 0.95 1.13 1.34 1.52 1.68 1.86 1.90 1.77 1.75 1.78 1.65 1.55 1.53 1.67 1.82 1.96 2.15 2.23 2.43 2.50 2.61 3.19 3.60 3.25 2.94 2.63 2.35 2.37 2.59 2.59 2.21 2.01 2.00 2.20 2.49 2.47 2.29 2.26 2.14
0.72 0.83 0.91 1.11 1.31 1.51 1.72 1.96 2.21 2.14 2.03 1.93 1.84 1.79 1.72 1.70 1.64 1.65 1.83 1.90 1.94 2.06 2.24 2.57 2.83 3.10 3.36 3.39 3.36 3.13 2.82 2.56 2.24 2.56 2.65 2.32 2.16 2.12 2.22 2.32 2.23 2.25 2.24
1.04 1.24 1.47 1.73 1.90 1.98 2.07 2.17 2.28 2.21 2.20 2.14 1.93 1.81 1.78 1.80 1.84 1.83 1.86 1.89 1.86 1.92 2.08 2.37 2.71 2.95 3.26 3.49 3.46 3.26 3.12 3.00 2.75 2.68 2.58 2.46 2.48 2.34 2.20 2.20 2.08 2.08 2.28